,,PA_Meas_PMT16A,,PR_Meas_QMR101_102,,RH_Meas_QMH101,,SR_Meas_QMS101,,TA_Meas_QMH101,,GenWind,,GenWind,
time,status,PA,status,PR,status,RH,status,SR,status,TA,status,DirAvg,status,SpdAvg,
2013-02-27, 00:00:04,VALID,917.829,VALID,0,VALID,95.0106,VALID,0,VALID,21.0876,VALID,266,VALID,0,
2013-02-27, 00:01:04,VALID,917.856,VALID,0,VALID,94.9954,VALID,0,VALID,21.1071,VALID,266,VALID,0,
2013-02-27, 00:02:04,VALID,917.827,VALID,0,VALID,95.0335,VALID,0,VALID,21.1055,VALID,266,VALID,0,
2013-02-27, 00:03:04,VALID,917.807,VALID,0,VALID,95.0945,VALID,0.107441,VALID,21.1461,VALID,266,VALID,0,
2013-02-27, 00:04:04,VALID,917.751,VALID,0,VALID,95.0869,VALID,0,VALID,21.1852,VALID,266,VALID,0,
2013-02-27, 00:05:04,VALID,917.734,VALID,0,VALID,95.1021,VALID,0.107441,VALID,21.1836,VALID,266,VALID,0,
2013-02-27, 00:06:04,VALID,917.74,VALID,0,VALID,95.0869,VALID,0,VALID,21.2242,VALID,266,VALID,0,
2013-02-27, 00:07:04,VALID,917.705,VALID,0,VALID,95.0564,VALID,0,VALID,21.2632,VALID,266,VALID,0,
2013-02-27, 00:08:04,VALID,917.681,VALID,0,VALID,94.9649,VALID,0,VALID,21.2632,VALID,266,VALID,0,
2013-02-27, 00:09:04,VALID,917.686,VALID,0,VALID,94.7286,VALID,0,VALID,21.2632,VALID,266,VALID,0,
2013-02-27, 00:10:04,VALID,917.664,VALID,0,VALID,94.6447,VALID,0,VALID,21.2437,VALID,266,VALID,0,
2013-02-27, 00:11:04,VALID,917.681,VALID,0,VALID,94.416,VALID,0,VALID,21.2242,VALID,266,VALID,0,
2013-02-27, 00:12:04,VALID,917.684,VALID,0,VALID,94.2635,VALID,0,VALID,21.2242,VALID,266,VALID,0,
2013-02-27, 00:13:04,VALID,917.678,VALID,0,VALID,94.1416,VALID,0,VALID,21.2031,VALID,266,VALID,0,
2013-02-27, 00:14:04,VALID,917.636,VALID,0,VALID,93.8824,VALID,0.107441,VALID,21.1852,VALID,266,VALID,0,
2013-02-27, 00:15:04,VALID,917.586,VALID,0,VALID,93.829,VALID,0.107441,VALID,21.125,VALID,266,VALID,0,
2013-02-27, 00:16:04,VALID,917.584,VALID,0,VALID,94.1187,VALID,0.107441,VALID,21.086,VALID,266,VALID,0,
2013-02-27, 00:17:04,VALID,917.578,VALID,0,VALID,94.1492,VALID,0,VALID,21.0486,VALID,320,VALID,0,
2013-02-27, 00:18:04,VALID,917.562,VALID,0,VALID,94.538,VALID,0,VALID,21.0291,VALID,320,VALID,0,
2013-02-27, 00:19:04,VALID,917.557,VALID,0,VALID,94.7667,VALID,0,VALID,21.0096,VALID,320,VALID,0,
2013-02-27, 00:20:04,VALID,917.566,VALID,0,VALID,94.9268,VALID,0.107441,VALID,20.9901,VALID,320,VALID,0,
2013-02-27, 00:21:04,VALID,917.557,VALID,0,VALID,95.0488,VALID,0.107441,VALID,20.9495,VALID,320,VALID,0,
2013-02-27, 00:22:04,VALID,917.521,VALID,0,VALID,95.2393,VALID,0,VALID,20.9706,VALID,320,VALID,0,
2013-02-27, 00:23:04,VALID,917.519,VALID,0,VALID,95.2317,VALID,0,VALID,20.9511,VALID,320,VALID,0,
2013-02-27, 00:24:04,VALID,917.506,VALID,0,VALID,95.1936,VALID,0,VALID,20.912,VALID,320,VALID,0,
2013-02-27, 00:25:04,VALID,917.565,VALID,0,VALID,95.247,VALID,0,VALID,20.912,VALID,320,VALID,0,
2013-02-27, 00:26:04,VALID,917.545,VALID,0,VALID,95.2393,VALID,0.107441,VALID,20.8714,VALID,320,VALID,0,
2013-02-27, 00:27:04,VALID,917.582,VALID,0,VALID,95.2698,VALID,0.107441,VALID,20.8714,VALID,320,VALID,0,
2013-02-27, 00:28:04,VALID,917.558,VALID,0,VALID,95.247,VALID,0,VALID,20.8925,VALID,320,VALID,0,
2013-02-27, 00:29:04,VALID,917.573,VALID,0,VALID,95.1783,VALID,0,VALID,20.873,VALID,320,VALID,0,
2013-02-27, 00:30:04,VALID,917.58,VALID,0,VALID,95.1631,VALID,0,VALID,20.8535,VALID,320,VALID,0,
2013-02-27, 00:31:05,VALID,917.609,VALID,0,VALID,95.0869,VALID,0.107441,VALID,20.8535,VALID,320,VALID,0,
2013-02-27, 00:32:05,VALID,917.628,VALID,0,VALID,94.9801,VALID,0.107441,VALID,20.834,VALID,320,VALID,0,
2013-02-27, 00:33:05,VALID,917.648,VALID,0,VALID,94.9496,VALID,0.107441,VALID,20.834,VALID,320,VALID,0,
2013-02-27, 00:34:05,VALID,917.683,VALID,0,VALID,94.9115,VALID,0,VALID,20.834,VALID,320,VALID,0,
2013-02-27, 00:35:05,VALID,917.703,VALID,0,VALID,94.82,VALID,0.107441,VALID,20.873,VALID,320,VALID,0,
2013-02-27, 00:36:05,VALID,917.737,VALID,0,VALID,94.7438,VALID,0,VALID,20.8535,VALID,320,VALID,0,
2013-02-27, 00:37:05,VALID,917.723,VALID,0,VALID,94.6523,VALID,0.107441,VALID,20.8714,VALID,320,VALID,0,
2013-02-27, 00:38:05,VALID,917.767,VALID,0,VALID,94.5227,VALID,0,VALID,20.8746,VALID,320,VALID,0,
2013-02-27, 00:39:05,VALID,917.747,VALID,0,VALID,94.3931,VALID,0,VALID,20.9136,VALID,320,VALID,0,
2013-02-27, 00:40:05,VALID,917.773,VALID,0,VALID,94.1339,VALID,0,VALID,20.9331,VALID,320,VALID,0,
2013-02-27, 00:41:05,VALID,917.751,VALID,0,VALID,93.8061,VALID,0,VALID,20.9527,VALID,320,VALID,0,
2013-02-27, 00:42:05,VALID,917.761,VALID,0,VALID,93.4631,VALID,0,VALID,20.9917,VALID,320,VALID,0,
2013-02-27, 00:43:05,VALID,917.764,VALID,0,VALID,93.0819,VALID,0,VALID,21.0112,VALID,320,VALID,0,
2013-02-27, 00:44:05,VALID,917.771,VALID,0,VALID,92.8761,VALID,0,VALID,21.0502,VALID,320,VALID,0,
2013-02-27, 00:45:05,VALID,917.763,VALID,0,VALID,92.7693,VALID,0,VALID,21.0697,VALID,320,VALID,0,
2013-02-27, 00:46:05,VALID,917.772,VALID,0,VALID,92.655,VALID,0,VALID,21.0892,VALID,320,VALID,0,
2013-02-27, 00:47:05,VALID,917.76,VALID,0,VALID,92.6093,VALID,0,VALID,21.1087,VALID,320,VALID,0,
2013-02-27, 00:48:05,VALID,917.825,VALID,0,VALID,92.7693,VALID,0,VALID,21.1282,VALID,320,VALID,0,
2013-02-27, 00:49:05,VALID,917.795,VALID,0,VALID,93.1124,VALID,0,VALID,21.1478,VALID,302,VALID,0,
2013-02-27, 00:50:05,VALID,917.78,VALID,0,VALID,93.4783,VALID,0,VALID,21.0876,VALID,266,VALID,0,
2013-02-27, 00:51:05,VALID,917.741,VALID,0,VALID,93.7451,VALID,0,VALID,21.1087,VALID,266,VALID,0,
2013-02-27, 00:52:05,VALID,917.714,VALID,0,VALID,93.8443,VALID,0,VALID,21.0892,VALID,266,VALID,0,
2013-02-27, 00:53:05,VALID,917.713,VALID,0,VALID,93.9434,VALID,0,VALID,21.0502,VALID,266,VALID,0,
2013-02-27, 00:54:05,VALID,917.677,VALID,0,VALID,93.9052,VALID,0,VALID,21.0502,VALID,266,VALID,0,
2013-02-27, 00:55:05,VALID,917.671,VALID,0,VALID,93.7756,VALID,0,VALID,21.0307,VALID,266,VALID,0,
2013-02-27, 00:56:05,VALID,917.646,VALID,0,VALID,93.7451,VALID,0,VALID,21.0112,VALID,266,VALID,0,
2013-02-27, 00:57:05,VALID,917.595,VALID,0,VALID,93.6079,VALID,0,VALID,20.9917,VALID,266,VALID,0,
2013-02-27, 00:58:05,VALID,917.596,VALID,0,VALID,93.8824,VALID,0,VALID,20.9917,VALID,266,VALID,0,
2013-02-27, 00:59:05,VALID,917.579,VALID,0,VALID,94.0272,VALID,0,VALID,20.9917,VALID,266,VALID,0,
2013-02-27, 01:00:05,VALID,917.528,VALID,0,VALID,93.8671,VALID,0,VALID,20.9331,VALID,266,VALID,0,
2013-02-27, 01:01:05,VALID,917.517,VALID,0,VALID,93.8214,VALID,0,VALID,20.8746,VALID,266,VALID,0,
2013-02-27, 01:02:05,VALID,917.528,VALID,0,VALID,94.0882,VALID,0,VALID,20.8551,VALID,266,VALID,0,
2013-02-27, 01:03:05,VALID,917.506,VALID,0,VALID,94.3093,VALID,0,VALID,20.8145,VALID,266,VALID,0,
2013-02-27, 01:04:05,VALID,917.492,VALID,0,VALID,94.4008,VALID,0,VALID,20.8161,VALID,269,VALID,0,
2013-02-27, 01:05:05,VALID,917.526,VALID,0,VALID,94.6447,VALID,0,VALID,20.7966,VALID,272,VALID,0,
2013-02-27, 01:06:05,VALID,917.492,VALID,0,VALID,94.8048,VALID,0,VALID,20.7966,VALID,298,VALID,0,
2013-02-27, 01:07:05,VALID,917.493,VALID,0,VALID,94.942,VALID,0,VALID,20.7771,VALID,311,VALID,0,
2013-02-27, 01:08:05,VALID,917.495,VALID,0,VALID,95.2165,VALID,0,VALID,20.795,VALID,311,VALID,0,
2013-02-27, 01:09:05,VALID,917.452,VALID,0,VALID,95.2622,VALID,0,VALID,20.7755,VALID,311,VALID,0,
2013-02-27, 01:10:05,VALID,917.496,VALID,0,VALID,95.247,VALID,0.107441,VALID,20.7544,VALID,311,VALID,0,
2013-02-27, 01:11:05,VALID,917.468,VALID,0,VALID,95.3384,VALID,0,VALID,20.7755,VALID,311,VALID,0,
2013-02-27, 01:12:05,VALID,917.475,VALID,0,VALID,95.247,VALID,0,VALID,20.7544,VALID,311,VALID,0,
2013-02-27, 01:13:05,VALID,917.46,VALID,0,VALID,95.2088,VALID,0,VALID,20.756,VALID,311,VALID,0,
2013-02-27, 01:14:05,VALID,917.467,VALID,0,VALID,95.1326,VALID,0,VALID,20.756,VALID,311,VALID,0,
2013-02-27, 01:15:05,VALID,917.473,VALID,0,VALID,95.0564,VALID,0,VALID,20.7365,VALID,311,VALID,0,
2013-02-27, 01:16:05,VALID,917.449,VALID,0,VALID,94.9801,VALID,0,VALID,20.7576,VALID,37,VALID,0,
2013-02-27, 01:17:05,VALID,917.412,VALID,0,VALID,94.8887,VALID,0,VALID,20.7154,VALID,37,VALID,0,
2013-02-27, 01:18:05,VALID,917.436,VALID,0,VALID,94.8734,VALID,0,VALID,20.717,VALID,37,VALID,0,
2013-02-27, 01:19:05,VALID,917.404,VALID,0,VALID,94.8582,VALID,0.107441,VALID,20.717,VALID,37,VALID,0,
2013-02-27, 01:20:05,VALID,917.391,VALID,0,VALID,94.9268,VALID,0,VALID,20.717,VALID,37,VALID,0,
2013-02-27, 01:21:05,VALID,917.364,VALID,0,VALID,95.0106,VALID,0,VALID,20.6975,VALID,37,VALID,0,
2013-02-27, 01:22:05,VALID,917.334,VALID,0,VALID,95.0869,VALID,0,VALID,20.6764,VALID,37,VALID,0,
2013-02-27, 01:23:05,VALID,917.33,VALID,0,VALID,95.1936,VALID,0,VALID,20.6795,VALID,67,VALID,0,
2013-02-27, 01:24:05,VALID,917.315,VALID,0,VALID,95.3003,VALID,0,VALID,20.6795,VALID,135,VALID,0,
2013-02-27, 01:25:05,VALID,917.344,VALID,0,VALID,95.4071,VALID,0,VALID,20.699,VALID,155,VALID,0,
2013-02-27, 01:26:05,VALID,917.336,VALID,0,VALID,95.4604,VALID,0,VALID,20.6795,VALID,163,VALID,0,
2013-02-27, 01:27:05,VALID,917.33,VALID,0,VALID,95.5443,VALID,0,VALID,20.6795,VALID,163,VALID,0,
2013-02-27, 01:28:05,VALID,917.291,VALID,0,VALID,95.5976,VALID,0,VALID,20.66,VALID,163,VALID,0,
2013-02-27, 01:29:05,VALID,917.281,VALID,0,VALID,95.651,VALID,0,VALID,20.66,VALID,163,VALID,0,
2013-02-27, 01:30:05,VALID,917.275,VALID,0,VALID,95.59,VALID,0,VALID,20.621,VALID,163,VALID,0,
2013-02-27, 01:31:05,VALID,917.257,VALID,0,VALID,95.6967,VALID,0,VALID,20.621,VALID,163,VALID,0,
2013-02-27, 01:32:05,VALID,917.23,VALID,0,VALID,95.7654,VALID,0,VALID,20.6405,VALID,163,VALID,0,
2013-02-27, 01:33:05,VALID,917.175,VALID,0,VALID,95.773,VALID,0,VALID,20.5804,VALID,163,VALID,0,
2013-02-27, 01:34:05,VALID,917.154,VALID,0,VALID,95.7425,VALID,0,VALID,20.582,VALID,163,VALID,0,
2013-02-27, 01:35:05,VALID,917.137,VALID,0,VALID,95.7425,VALID,0,VALID,20.582,VALID,163,VALID,0,
2013-02-27, 01:36:05,VALID,917.139,VALID,0,VALID,95.6891,VALID,0,VALID,20.543,VALID,163,VALID,0,
2013-02-27, 01:37:05,VALID,917.132,VALID,0,VALID,95.7882,VALID,0,VALID,20.5625,VALID,158,VALID,0,
2013-02-27, 01:38:05,VALID,917.156,VALID,0,VALID,95.8263,VALID,0,VALID,20.5804,VALID,156,VALID,0,
2013-02-27, 01:39:05,VALID,917.111,VALID,0,VALID,95.8416,VALID,0,VALID,20.5999,VALID,156,VALID,0,
2013-02-27, 01:40:05,VALID,917.118,VALID,0,VALID,95.8416,VALID,0,VALID,20.5804,VALID,156,VALID,0,
2013-02-27, 01:41:05,VALID,917.106,VALID,0,VALID,95.8873,VALID,0,VALID,20.5984,VALID,156,VALID,0,
2013-02-27, 01:42:05,VALID,917.1,VALID,0,VALID,95.895,VALID,0,VALID,20.6194,VALID,156,VALID,0,
2013-02-27, 01:43:05,VALID,917.124,VALID,0,VALID,95.8873,VALID,0,VALID,20.6405,VALID,156,VALID,0,
2013-02-27, 01:44:05,VALID,917.109,VALID,0,VALID,95.8721,VALID,0,VALID,20.639,VALID,156,VALID,0,
2013-02-27, 01:45:05,VALID,917.11,VALID,0,VALID,95.8416,VALID,0,VALID,20.6585,VALID,156,VALID,0,
2013-02-27, 01:46:05,VALID,917.061,VALID,0,VALID,95.8263,VALID,0,VALID,20.6569,VALID,156,VALID,0,
2013-02-27, 01:47:05,VALID,917.039,VALID,0,VALID,95.7501,VALID,0,VALID,20.678,VALID,156,VALID,0,
2013-02-27, 01:48:05,VALID,916.987,VALID,0,VALID,95.7425,VALID,0.107441,VALID,20.678,VALID,156,VALID,0,
2013-02-27, 01:49:05,VALID,916.986,VALID,0,VALID,95.6586,VALID,0.107441,VALID,20.6585,VALID,156,VALID,0,
2013-02-27, 01:50:05,VALID,916.948,VALID,0,VALID,95.5824,VALID,0,VALID,20.6194,VALID,156,VALID,0,
2013-02-27, 01:51:05,VALID,916.924,VALID,0,VALID,95.5976,VALID,0,VALID,20.5999,VALID,156,VALID,0,
2013-02-27, 01:52:05,VALID,916.902,VALID,0,VALID,95.6281,VALID,0,VALID,20.5804,VALID,156,VALID,0,
2013-02-27, 01:53:05,VALID,916.904,VALID,0,VALID,95.5976,VALID,0,VALID,20.5609,VALID,156,VALID,0,
2013-02-27, 01:54:05,VALID,916.927,VALID,0,VALID,95.5367,VALID,0,VALID,20.5399,VALID,156,VALID,0,
2013-02-27, 01:55:05,VALID,916.901,VALID,0,VALID,95.4909,VALID,0.107441,VALID,20.5414,VALID,156,VALID,0,
2013-02-27, 01:56:05,VALID,916.859,VALID,0,VALID,95.4833,VALID,0,VALID,20.5219,VALID,120,VALID,0,
2013-02-27, 01:57:05,VALID,916.824,VALID,0,VALID,95.4833,VALID,0,VALID,20.5024,VALID,120,VALID,0,
2013-02-27, 01:58:05,VALID,916.805,VALID,0,VALID,95.4909,VALID,0,VALID,20.4618,VALID,120,VALID,0,
2013-02-27, 01:59:05,VALID,916.803,VALID,0,VALID,95.5367,VALID,0.107441,VALID,20.4439,VALID,120,VALID,0,
2013-02-27, 02:00:05,VALID,916.737,VALID,0,VALID,95.5748,VALID,0,VALID,20.4228,VALID,120,VALID,0,
2013-02-27, 02:01:05,VALID,916.749,VALID,0,VALID,95.6586,VALID,0,VALID,20.4423,VALID,120,VALID,0,
2013-02-27, 02:02:05,VALID,916.73,VALID,0,VALID,95.6434,VALID,0.107441,VALID,20.4439,VALID,120,VALID,0,
2013-02-27, 02:03:05,VALID,916.724,VALID,0,VALID,95.6891,VALID,0,VALID,20.4244,VALID,120,VALID,0,
2013-02-27, 02:04:05,VALID,916.728,VALID,0,VALID,95.7577,VALID,0,VALID,20.4439,VALID,120,VALID,0,
2013-02-27, 02:05:05,VALID,916.745,VALID,0,VALID,95.7806,VALID,0,VALID,20.4634,VALID,120,VALID,0,
2013-02-27, 02:06:05,VALID,916.792,VALID,0,VALID,95.7882,VALID,0.107441,VALID,20.4829,VALID,120,VALID,0,
2013-02-27, 02:07:05,VALID,916.765,VALID,0,VALID,95.7806,VALID,0,VALID,20.4618,VALID,120,VALID,0,
2013-02-27, 02:08:05,VALID,916.786,VALID,0,VALID,95.7349,VALID,0,VALID,20.5024,VALID,120,VALID,0,
2013-02-27, 02:09:05,VALID,916.782,VALID,0,VALID,95.6967,VALID,0,VALID,20.5024,VALID,120,VALID,0,
2013-02-27, 02:10:05,VALID,916.795,VALID,0,VALID,95.6357,VALID,0,VALID,20.5235,VALID,120,VALID,0,
2013-02-27, 02:11:05,VALID,916.787,VALID,0,VALID,95.5595,VALID,0,VALID,20.543,VALID,120,VALID,0,
2013-02-27, 02:12:05,VALID,916.764,VALID,0,VALID,95.5367,VALID,0,VALID,20.5625,VALID,120,VALID,0,
2013-02-27, 02:13:05,VALID,916.734,VALID,0,VALID,95.4528,VALID,0,VALID,20.5625,VALID,120,VALID,0,
2013-02-27, 02:14:05,VALID,916.736,VALID,0,VALID,95.3918,VALID,0,VALID,20.5414,VALID,120,VALID,0,
2013-02-27, 02:15:05,VALID,916.729,VALID,0,VALID,95.3384,VALID,0,VALID,20.5625,VALID,120,VALID,0,
2013-02-27, 02:16:05,VALID,916.714,VALID,0,VALID,95.2698,VALID,0,VALID,20.582,VALID,120,VALID,0,
2013-02-27, 02:17:05,VALID,916.719,VALID,0,VALID,95.1936,VALID,0,VALID,20.621,VALID,121,VALID,0,
2013-02-27, 02:18:05,VALID,916.692,VALID,0,VALID,95.1097,VALID,0,VALID,20.621,VALID,121,VALID,0,
2013-02-27, 02:19:05,VALID,916.692,VALID,0,VALID,95.0564,VALID,0,VALID,20.621,VALID,121,VALID,0,
2013-02-27, 02:20:05,VALID,916.701,VALID,0,VALID,95.0488,VALID,0,VALID,20.5999,VALID,134,VALID,0,
2013-02-27, 02:21:05,VALID,916.689,VALID,0,VALID,95.0869,VALID,0,VALID,20.5804,VALID,136,VALID,0,
2013-02-27, 02:22:05,VALID,916.714,VALID,0,VALID,95.0869,VALID,0,VALID,20.621,VALID,136,VALID,0,
2013-02-27, 02:23:05,VALID,916.732,VALID,0,VALID,95.1326,VALID,0,VALID,20.621,VALID,136,VALID,0,
2013-02-27, 02:24:05,VALID,916.689,VALID,0,VALID,95.125,VALID,0,VALID,20.6405,VALID,136,VALID,0,
2013-02-27, 02:25:05,VALID,916.67,VALID,0,VALID,95.0792,VALID,0,VALID,20.5999,VALID,136,VALID,0,
2013-02-27, 02:26:05,VALID,916.655,VALID,0,VALID,95.0411,VALID,0,VALID,20.6194,VALID,136,VALID,0,
2013-02-27, 02:27:05,VALID,916.65,VALID,0,VALID,95.0335,VALID,0,VALID,20.66,VALID,136,VALID,0,
2013-02-27, 02:28:05,VALID,916.621,VALID,0,VALID,94.9573,VALID,0,VALID,20.66,VALID,136,VALID,0,
2013-02-27, 02:29:05,VALID,916.622,VALID,0,VALID,94.8048,VALID,0,VALID,20.6405,VALID,136,VALID,0,
2013-02-27, 02:30:05,VALID,916.604,VALID,0,VALID,94.7438,VALID,0,VALID,20.6015,VALID,136,VALID,0,
2013-02-27, 02:31:05,VALID,916.62,VALID,0,VALID,94.5609,VALID,0,VALID,20.5625,VALID,136,VALID,0,
2013-02-27, 02:32:05,VALID,916.572,VALID,0,VALID,94.7819,VALID,0,VALID,20.543,VALID,136,VALID,0,
2013-02-27, 02:33:05,VALID,916.555,VALID,0,VALID,94.8429,VALID,0,VALID,20.5235,VALID,119,VALID,0,
2013-02-27, 02:34:05,VALID,916.567,VALID,0,VALID,94.7896,VALID,0,VALID,20.504,VALID,107,VALID,0,
2013-02-27, 02:35:05,VALID,916.549,VALID,0,VALID,94.8048,VALID,0,VALID,20.4845,VALID,107,VALID,0,
2013-02-27, 02:36:05,VALID,916.533,VALID,0,VALID,94.9039,VALID,0,VALID,20.504,VALID,107,VALID,0,
2013-02-27, 02:37:05,VALID,916.483,VALID,0,VALID,94.942,VALID,0,VALID,20.5024,VALID,107,VALID,0,
2013-02-27, 02:38:05,VALID,916.506,VALID,0,VALID,94.9573,VALID,0,VALID,20.5219,VALID,107,VALID,0,
2013-02-27, 02:39:05,VALID,916.504,VALID,0,VALID,94.9649,VALID,0,VALID,20.5414,VALID,108,VALID,0,
2013-02-27, 02:40:05,VALID,916.523,VALID,0,VALID,94.9954,VALID,0.107441,VALID,20.5414,VALID,117,VALID,0,
2013-02-27, 02:41:05,VALID,916.536,VALID,0,VALID,94.9573,VALID,0.107441,VALID,20.5414,VALID,116,VALID,0,
2013-02-27, 02:42:05,VALID,916.523,VALID,0,VALID,94.9496,VALID,0,VALID,20.5414,VALID,116,VALID,0,
2013-02-27, 02:43:05,VALID,916.49,VALID,0,VALID,94.942,VALID,0,VALID,20.5219,VALID,116,VALID,0,
2013-02-27, 02:44:05,VALID,916.457,VALID,0,VALID,94.9192,VALID,0,VALID,20.5219,VALID,117,VALID,0,
2013-02-27, 02:45:05,VALID,916.436,VALID,0,VALID,94.9039,VALID,0,VALID,20.5219,VALID,117,VALID,0,
2013-02-27, 02:46:05,VALID,916.447,VALID,0,VALID,94.9268,VALID,0.107441,VALID,20.5009,VALID,117,VALID,0,
2013-02-27, 02:47:05,VALID,916.448,VALID,0,VALID,94.942,VALID,0,VALID,20.5024,VALID,117,VALID,0,
2013-02-27, 02:48:05,VALID,916.435,VALID,0,VALID,95.0183,VALID,0.107441,VALID,20.4813,VALID,116,VALID,0,
2013-02-27, 02:49:05,VALID,916.462,VALID,0,VALID,95.0259,VALID,0,VALID,20.4813,VALID,117,VALID,0,
2013-02-27, 02:50:05,VALID,916.442,VALID,0,VALID,95.0183,VALID,0.107441,VALID,20.4813,VALID,116,VALID,0,
2013-02-27, 02:51:05,VALID,916.429,VALID,0,VALID,95.0411,VALID,0,VALID,20.4829,VALID,117,VALID,0,
2013-02-27, 02:52:05,VALID,916.413,VALID,0,VALID,95.1021,VALID,0.107441,VALID,20.4813,VALID,116,VALID,0,
2013-02-27, 02:53:05,VALID,916.429,VALID,0,VALID,95.1326,VALID,0,VALID,20.504,VALID,117,VALID,0,
2013-02-27, 02:54:05,VALID,916.408,VALID,0,VALID,95.1783,VALID,0,VALID,20.543,VALID,116,VALID,0,
2013-02-27, 02:55:05,VALID,916.39,VALID,0,VALID,95.2165,VALID,0,VALID,20.5625,VALID,117,VALID,0,
2013-02-27, 02:56:05,VALID,916.353,VALID,0,VALID,95.2241,VALID,0,VALID,20.582,VALID,116,VALID,0,
2013-02-27, 02:57:05,VALID,916.362,VALID,0,VALID,95.1402,VALID,0,VALID,20.6015,VALID,116,VALID,0,
2013-02-27, 02:58:05,VALID,916.318,VALID,0,VALID,95.0564,VALID,0,VALID,20.6015,VALID,117,VALID,0,
2013-02-27, 02:59:05,VALID,916.292,VALID,0,VALID,94.9801,VALID,0,VALID,20.6015,VALID,117,VALID,0,
2013-02-27, 03:00:05,VALID,916.274,VALID,0,VALID,94.8658,VALID,0,VALID,20.5609,VALID,117,VALID,0,
2013-02-27, 03:01:05,VALID,916.245,VALID,0,VALID,94.8124,VALID,0,VALID,20.5625,VALID,116,VALID,0,
2013-02-27, 03:02:05,VALID,916.272,VALID,0,VALID,94.8353,VALID,0,VALID,20.5625,VALID,116,VALID,0,
2013-02-27, 03:03:05,VALID,916.289,VALID,0,VALID,94.881,VALID,0,VALID,20.5625,VALID,117,VALID,0,
2013-02-27, 03:04:05,VALID,916.292,VALID,0,VALID,94.9192,VALID,0,VALID,20.6015,VALID,116,VALID,0,
2013-02-27, 03:05:05,VALID,916.271,VALID,0,VALID,94.8582,VALID,0,VALID,20.6405,VALID,117,VALID,0,
2013-02-27, 03:06:05,VALID,916.22,VALID,0,VALID,94.7438,VALID,0,VALID,20.66,VALID,116,VALID,0,
2013-02-27, 03:07:05,VALID,916.206,VALID,0,VALID,94.6828,VALID,0,VALID,20.6795,VALID,116,VALID,0,
2013-02-27, 03:08:05,VALID,916.22,VALID,0,VALID,94.6142,VALID,0,VALID,20.678,VALID,116,VALID,0,
2013-02-27, 03:09:05,VALID,916.239,VALID,0,VALID,94.5761,VALID,0,VALID,20.6975,VALID,116,VALID,0,
2013-02-27, 03:10:05,VALID,916.227,VALID,0,VALID,94.355,VALID,0.107441,VALID,20.678,VALID,116,VALID,0,
2013-02-27, 03:11:05,VALID,916.196,VALID,0,VALID,94.0958,VALID,0.107441,VALID,20.639,VALID,115,VALID,0,
2013-02-27, 03:12:05,VALID,916.152,VALID,0,VALID,93.9738,VALID,0,VALID,20.639,VALID,111,VALID,0,
2013-02-27, 03:13:04,VALID,916.125,VALID,0,VALID,93.7528,VALID,0,VALID,20.6194,VALID,108,VALID,0,
2013-02-27, 03:14:04,VALID,916.095,VALID,0,VALID,93.646,VALID,0.107441,VALID,20.639,VALID,108,VALID,0,
2013-02-27, 03:15:04,VALID,916.046,VALID,0,VALID,93.5393,VALID,0,VALID,20.5999,VALID,108,VALID,0,
2013-02-27, 03:16:04,VALID,916.027,VALID,0,VALID,93.4631,VALID,0,VALID,20.5804,VALID,108,VALID,0,
2013-02-27, 03:17:04,VALID,916.037,VALID,0,VALID,93.4631,VALID,0.107441,VALID,20.5399,VALID,108,VALID,0,
2013-02-27, 03:18:04,VALID,916.038,VALID,0,VALID,93.5012,VALID,0.107441,VALID,20.5414,VALID,108,VALID,0,
2013-02-27, 03:19:04,VALID,916.036,VALID,0,VALID,93.5241,VALID,0,VALID,20.5414,VALID,108,VALID,0,
2013-02-27, 03:20:04,VALID,915.981,VALID,0,VALID,93.5088,VALID,0,VALID,20.5204,VALID,108,VALID,0,
2013-02-27, 03:21:04,VALID,915.962,VALID,0,VALID,93.4631,VALID,0,VALID,20.5609,VALID,108,VALID,0,
2013-02-27, 03:22:04,VALID,915.931,VALID,0,VALID,93.5317,VALID,0.107441,VALID,20.582,VALID,108,VALID,0,
2013-02-27, 03:23:04,VALID,915.935,VALID,0,VALID,93.4631,VALID,0,VALID,20.5609,VALID,108,VALID,0,
2013-02-27, 03:24:04,VALID,915.981,VALID,0,VALID,93.4478,VALID,0.107441,VALID,20.5609,VALID,108,VALID,0,
2013-02-27, 03:25:04,VALID,915.957,VALID,0,VALID,93.5317,VALID,0,VALID,20.5609,VALID,108,VALID,0,
2013-02-27, 03:26:04,VALID,915.95,VALID,0,VALID,93.6079,VALID,0,VALID,20.5804,VALID,108,VALID,0,
2013-02-27, 03:27:04,VALID,915.928,VALID,0,VALID,93.6232,VALID,0,VALID,20.5804,VALID,108,VALID,0,
2013-02-27, 03:28:04,VALID,915.924,VALID,0,VALID,93.646,VALID,0,VALID,20.5609,VALID,108,VALID,0,
2013-02-27, 03:29:04,VALID,915.89,VALID,0,VALID,93.7223,VALID,0.107441,VALID,20.5609,VALID,108,VALID,0,
2013-02-27, 03:30:04,VALID,915.887,VALID,0,VALID,93.8366,VALID,0,VALID,20.5414,VALID,108,VALID,0,
2013-02-27, 03:31:04,VALID,915.853,VALID,0,VALID,93.9281,VALID,0,VALID,20.5414,VALID,108,VALID,0,
2013-02-27, 03:32:04,VALID,915.836,VALID,0,VALID,93.9586,VALID,0.107441,VALID,20.5219,VALID,108,VALID,0,
2013-02-27, 03:33:04,VALID,915.805,VALID,0,VALID,94.012,VALID,0,VALID,20.4813,VALID,108,VALID,0,
2013-02-27, 03:34:04,VALID,915.828,VALID,0,VALID,94.0196,VALID,0.107441,VALID,20.5024,VALID,108,VALID,0,
2013-02-27, 03:35:04,VALID,915.78,VALID,0,VALID,93.9815,VALID,0,VALID,20.4634,VALID,108,VALID,0,
2013-02-27, 03:36:04,VALID,915.758,VALID,0,VALID,93.9967,VALID,0,VALID,20.4439,VALID,108,VALID,0,
2013-02-27, 03:37:04,VALID,915.747,VALID,0,VALID,94.0653,VALID,0.107441,VALID,20.4244,VALID,108,VALID,0,
2013-02-27, 03:38:04,VALID,915.71,VALID,0,VALID,94.1644,VALID,0.107441,VALID,20.3854,VALID,108,VALID,0,
2013-02-27, 03:39:04,VALID,915.698,VALID,0,VALID,94.2788,VALID,0.107441,VALID,20.3448,VALID,108,VALID,0,
2013-02-27, 03:40:04,VALID,915.719,VALID,0,VALID,94.3703,VALID,0,VALID,20.3464,VALID,108,VALID,0,
2013-02-27, 03:41:04,VALID,915.696,VALID,0,VALID,94.4236,VALID,0,VALID,20.3464,VALID,108,VALID,0,
2013-02-27, 03:42:04,VALID,915.706,VALID,0,VALID,94.5075,VALID,0,VALID,20.3464,VALID,108,VALID,0,
2013-02-27, 03:43:04,VALID,915.682,VALID,0,VALID,94.3703,VALID,0,VALID,20.3464,VALID,108,VALID,0,
2013-02-27, 03:44:04,VALID,915.694,VALID,0,VALID,94.2254,VALID,0,VALID,20.2879,VALID,108,VALID,0,
2013-02-27, 03:45:04,VALID,915.695,VALID,0,VALID,94.1797,VALID,0,VALID,20.2684,VALID,108,VALID,0,
2013-02-27, 03:46:04,VALID,915.649,VALID,0,VALID,94.2712,VALID,0,VALID,20.2489,VALID,108,VALID,0,
2013-02-27, 03:47:04,VALID,915.623,VALID,0,VALID,94.3017,VALID,0,VALID,20.1888,VALID,108,VALID,0,
2013-02-27, 03:48:04,VALID,915.611,VALID,0,VALID,94.3474,VALID,0,VALID,20.1498,VALID,108,VALID,0,
2013-02-27, 03:49:04,VALID,915.617,VALID,0,VALID,94.4617,VALID,0.107441,VALID,20.1108,VALID,108,VALID,0,
2013-02-27, 03:50:04,VALID,915.658,VALID,0,VALID,94.66,VALID,0,VALID,20.1123,VALID,108,VALID,0,
2013-02-27, 03:51:04,VALID,915.667,VALID,0,VALID,94.7209,VALID,0,VALID,20.1123,VALID,108,VALID,0,
2013-02-27, 03:52:04,VALID,915.675,VALID,0,VALID,94.6981,VALID,0,VALID,20.1318,VALID,108,VALID,0,
2013-02-27, 03:53:04,VALID,915.676,VALID,0,VALID,94.6066,VALID,0,VALID,20.1513,VALID,108,VALID,0,
2013-02-27, 03:54:04,VALID,915.661,VALID,0,VALID,94.4694,VALID,0,VALID,20.1708,VALID,108,VALID,0,
2013-02-27, 03:55:04,VALID,915.632,VALID,0,VALID,94.355,VALID,0,VALID,20.1708,VALID,108,VALID,0,
2013-02-27, 03:56:04,VALID,915.617,VALID,0,VALID,94.2559,VALID,0,VALID,20.1724,VALID,108,VALID,0,
2013-02-27, 03:57:04,VALID,915.589,VALID,0,VALID,94.2407,VALID,0,VALID,20.1334,VALID,108,VALID,0,